+ View the NASA Portal
+ Center for Near-Earth Object Studies
IMPORTANT:
The SSD Announcement email list is now available. Major changes are coming in the near future, including possible hostname and/or URL changes. To be notified of such changes, subscribe to this email list.
Please visit
this page
for more details.
Don't show this message again
JPL Small-Body Database Browser
Search:
[
help
]
357124 (2001 XM236)
Classification:
Main-belt Asteroid
SPK-ID:
2357124
[
Ephemeris
|
Orbit Diagram
|
Orbital Elements
|
Mission Design
|
Physical Parameters
|
Discovery Circumstances
]
[ show orbit diagram ]
Orbital Elements at Epoch 2458600.5 (2019-Apr-27.0) TDB
Reference:
JPL 13
(heliocentric ecliptic J2000)
Element
Value
Uncertainty (1-sigma)
Units
e
.2024270402003309
5.6367e-08
a
2.317061631550803
1.8458e-08
au
q
1.848025703514224
1.3183e-07
au
i
2.767661479061149
7.1645e-06
deg
node
16.8301261720929
0.00014582
deg
peri
352.3751609123921
0.00014765
deg
M
23.17583275887171
2.1928e-05
deg
t
p
2458517.565037431575
(2019-Feb-03.06503743)
7.8366e-05
TDB
period
1288.263806322301
3.53
1.5394e-05
4.215e-08
d
yr
n
.2794458698857014
3.3392e-09
deg/d
Q
2.786097559587382
2.2194e-08
au
Orbit Determination Parameters
# obs. used (total)
151
data-arc span
6033 days (16.52 yr)
first obs. used
2001-12-15
last obs. used
2018-06-22
planetary ephem.
DE431
SB-pert. ephem.
SB431-N16
condition code
0
norm. resid. RMS
.67002
source
ORB
producer
Otto Matic
solution date
2019-Jul-13 16:03:37
Additional Information
Earth MOID
= .846601 au
Jupiter MOID
= 2.67307 au
T_jup
= 3.551
[ show covariance matrix ]
[
Ephemeris
|
Orbit Diagram
|
Orbital Elements
|
Mission Design
|
Physical Parameters
|
Discovery Circumstances
]
Physical Parameter Table
Parameter
Symbol
Value
Units
Sigma
Reference
Notes
absolute magnitude
H
17.7
n/a
MPO455578
357124 (2001 XM236)
Discovered 2001-Dec-15 by LINEAR at Socorro
Reference:
20130327/Numbers.arc
Last Updated:
2013-03-29
Alternate Designations
2001 XM236
= 2006 BO202
[
Ephemeris
|
Orbit Diagram
|
Orbital Elements
|
Mission Design
|
Physical Parameters
|
Discovery Circumstances
]
2019-Dec-12 22:14 UT
(server date/time)
Site Manager:
Ryan S. Park
Webmaster
:
Alan B. Chamberlin